Ithaca, NY

3:33 PM EDT on July 26, 2017 (GMT -0400)
Tompkins County

Weather History for KITH - October, 2013

Change the Weather History Date:

Monday, October 28, 2013

  Actual Average Record
Temperature  
Mean Temperature 40 °F -  
Max Temperature 50 °F 56 °F 79 °F (1927)
Min Temperature 31 °F 36 °F 20 °F (1976)
Degree Days  
Heating Degree Days 26    
Moisture  
Dew Point 31 °F    
Average Humidity 69    
Maximum Humidity 88    
Minimum Humidity 60    
Precipitation  
Precipitation 0.00 in - - ()
Sea Level Pressure  
Sea Level Pressure 30.24 in    
Wind  
Wind Speed 5 mph (NW)    
Max Wind Speed 14 mph    
Max Gust Speed 20 mph    
Visibility 10 miles    
Events      
Averages and records for this station are not official NWS values.
T = Trace of Precipitation, MM = Missing Value Source: NWS Daily Summary

Daily Weather History Graph

Daily Weather History Graph

Search for Another Location

Airport or City:

Trip Planner

Search our weather history database for the weather conditions in past years. The results will help you decide how hot, cold, wet, or windy it might be!

Date:

Astronomy

Oct. 28, 2013 Rise Set
Actual Time 7:34 AM EDT 6:03 PM EDT
Civil Twilight 7:05 AM EDT 6:32 PM EDT
Nautical Twilight 6:32 AM EDT 7:05 PM EDT
Astronomical Twilight 5:59 AM EDT 7:38 PM EDT
Moon 1:18 AM EDT (10/28) 2:51 PM EDT (10/28)
Length of Visible Light 11h 27m
Length of Day
10h 29m
Waning Crescent, 34% of the Moon is Illuminated
Oct 28
Waning Crescent
Nov 3
New
Nov 10
First Quarter
Nov 17
Full
Nov 25
Last Quarter

Hourly Weather History & Observations

Time (EDT) Temp. Windchill Dew Point Humidity Pressure Visibility Wind Dir Wind Speed Gust Speed Precip Events Conditions
12:56 AM 41.0 °F 39.0 °F 31.1 °F 68% 30.10 in 10.0 mi SW 3.5 mph - N/A   Overcast
1:56 AM 41.0 °F - 31.1 °F 68% 30.11 in 10.0 mi Calm Calm - N/A   Overcast
2:56 AM 39.9 °F - 32.0 °F 73% 30.11 in 10.0 mi Calm Calm - N/A   Overcast
3:56 AM 37.9 °F 35.5 °F 31.1 °F 76% 30.11 in 10.0 mi South 3.5 mph - N/A   Overcast
4:56 AM 37.9 °F 35.5 °F 30.0 °F 73% 30.12 in 10.0 mi South 3.5 mph - N/A   Mostly Cloudy
5:56 AM 39.9 °F 34.5 °F 30.0 °F 68% 30.12 in 10.0 mi SSW 8.1 mph - N/A   Mostly Cloudy
6:11 AM 39.2 °F 32.5 °F 30.2 °F 70% 30.10 in 10.0 mi SSW 10.4 mph - N/A   Scattered Clouds
6:56 AM 39.9 °F 37.8 °F 30.0 °F 68% 30.14 in 10.0 mi SSW 3.5 mph - N/A   Scattered Clouds
7:56 AM 39.9 °F 34.5 °F 31.1 °F 71% 30.17 in 10.0 mi WSW 8.1 mph - N/A   Scattered Clouds
8:56 AM 41.9 °F 36.9 °F 32.0 °F 68% 30.19 in 10.0 mi West 8.1 mph - N/A   Scattered Clouds
9:56 AM 46.9 °F - 34.0 °F 61% 30.20 in 10.0 mi WNW 8.1 mph - N/A   Partly Cloudy
10:56 AM 48.9 °F - 36.0 °F 61% 30.22 in 10.0 mi WNW 13.8 mph 19.6 mph N/A   Mostly Cloudy
11:56 AM 48.9 °F - 36.9 °F 63% 30.23 in 10.0 mi NNW 13.8 mph - N/A   Mostly Cloudy
12:56 PM 46.9 °F - 36.9 °F 68% 30.25 in 10.0 mi NW 8.1 mph - N/A   Mostly Cloudy
1:56 PM 45.9 °F 40.4 °F 34.9 °F 66% 30.26 in 10.0 mi NNW 11.5 mph - N/A   Overcast
2:56 PM 46.9 °F - 34.0 °F 61% 30.27 in 10.0 mi NW 8.1 mph - N/A   Mostly Cloudy
3:56 PM 45.9 °F 42.3 °F 32.9 °F 61% 30.29 in 10.0 mi NNW 6.9 mph - N/A   Mostly Cloudy
4:56 PM 45.0 °F 40.6 °F 32.0 °F 60% 30.31 in 10.0 mi NNW 8.1 mph - N/A   Mostly Cloudy
5:56 PM 41.9 °F 38.2 °F 30.0 °F 63% 30.32 in 10.0 mi North 5.8 mph - N/A   Mostly Cloudy
6:56 PM 38.8 °F 34.6 °F 28.0 °F 65% 30.35 in 10.0 mi North 5.8 mph - N/A   Scattered Clouds
7:56 PM 36.0 °F 32.1 °F 27.1 °F 70% 30.37 in 10.0 mi NNE 4.6 mph - N/A   Partly Cloudy
8:56 PM 34.9 °F 30.8 °F 27.1 °F 73% 30.37 in 10.0 mi NE 4.6 mph - N/A   Scattered Clouds
9:56 PM 34.0 °F 29.8 °F 28.0 °F 79% 30.38 in 10.0 mi NE 4.6 mph - N/A   Scattered Clouds
10:56 PM 31.1 °F 27.7 °F 28.0 °F 88% 30.40 in 10.0 mi ENE 3.5 mph - N/A   Partly Cloudy
11:56 PM 31.1 °F - 28.0 °F 88% 30.40 in 10.0 mi Calm Calm - N/A   Overcast